Regional Weather Roundup
Issued by NWS

Home | Current Version | Previous Version | Text Only | Print | Product List | Glossary On
Versions: 1 2 3 4 5 6 7 8 9 10 11 12 13 14 15 16 17 18 19 20 21 22 23 24 25 26 27 28 29 30 31 32 33 34 35 36 37 38 39 40 41 42 43 44 45 46 47 48 49 50
000
ASUS44 KFWD 230615
RWRTX
NORTH TEXAS HOURLY WEATHER ROUNDUP
NATIONAL WEATHER SERVICE FORT WORTH TX
100 AM CDT WED JUL 23 2014

NOTE: "FAIR" INDICATES FEW OR NO CLOUDS BELOW 12,000 FEET WITH NO
SIGNIFICANT WEATHER AND/OR OBSTRUCTIONS TO VISIBILITY.

TXZ118-119-230700-
DALLAS/FORT WORTH METROPLEX

CITY           SKY/WX    TMP DP  RH WIND       PRES   REMARKS
DFW AIRPORT    CLEAR     82  70  66 SE6       30.07R
6HR MIN TEMP:  82; 6HR MAX TEMP:  94;

DALLAS LOVE    CLEAR     82  70  66 SE7       30.07R
6HR MIN TEMP:  82; 6HR MAX TEMP:  93;

FTW MEACHAM    CLEAR     83  70  64 E6        30.07R
6HR MIN TEMP:  83; 6HR MAX TEMP:  95;

DAL-EXECUTIVE  CLEAR     80  70  71 E5        30.07S
6HR MIN TEMP:  80; 6HR MAX TEMP:  94;

FTW-ALLIANCE   CLEAR     78  69  73 CALM      30.07R
6HR MIN TEMP:  77; 6HR MAX TEMP:  92;

FTW-NAS-JRB    CLEAR     85  68  56 E6        30.11R
6HR MIN TEMP:  85; 6HR MAX TEMP:  97;

FTW-SPINKS     CLEAR     79  70  73 CALM      30.09S
6HR MIN TEMP:  78; 6HR MAX TEMP:  95;

ARLINGTON      CLEAR     82  70  66 E5        30.07S
6HR MIN TEMP:  82; 6HR MAX TEMP:  94;

GRAND PRAIRIE  CLEAR     81  68  65 E5        30.08S
6HR MIN TEMP:  81; 6HR MAX TEMP:  93;

ADDISON        CLEAR     83  69  61 SE7       30.09S
6HR MIN TEMP:  83; 6HR MAX TEMP:  93;

MESQUITE       CLEAR     76  69  80 SE3       30.07S
6HR MIN TEMP:  76; 6HR MAX TEMP:  91;

LANCASTER      CLEAR     73  67  82 CALM      30.07S
6HR MIN TEMP:  73; 6HR MAX TEMP:  92;

$$

TXZ091>094-102>105-117-120-121-131>134-230700-
NORTH CENTRAL TEXAS

CITY           SKY/WX    TMP DP  RH WIND       PRES   REMARKS
SHRMAN/DENISON CLEAR     80  70  72 SE5       30.09R
6HR MIN TEMP:  80; 6HR MAX TEMP:  91;

GAINESVILLE    CLEAR     78  72  81 SE3       30.11R
6HR MIN TEMP:  77; 6HR MAX TEMP:  92;

BOWIE          CLEAR     77  73  87 CALM      30.10S
6HR MIN TEMP:  77; 6HR MAX TEMP:  91;

BRIDGEPORT     CLEAR     77  69  75 CALM      30.10S
6HR MIN TEMP:  77; 6HR MAX TEMP:  92;

DECATUR        CLEAR     77  70  79 E5        30.10R
6HR MIN TEMP:  77; 6HR MAX TEMP:  92;

DENTON         CLEAR     79  71  76 SE3       30.07S
6HR MIN TEMP:  79; 6HR MAX TEMP:  92;

MCKINNEY       CLEAR     75  71  87 CALM      30.07F
6HR MIN TEMP:  74; 6HR MAX TEMP:  91;

GREENVILLE     CLEAR     73  70  88 CALM      30.08S
ROCKWALL       CLEAR     76  71  84 CALM      30.06F
6HR MIN TEMP:  76; 6HR MAX TEMP:  89;

TERRELL        CLEAR     78  71  79 E5        30.07S
6HR MIN TEMP:  78; 6HR MAX TEMP:  92;

WAXAHACHIE     CLEAR     77  68  73 CALM      30.09S
6HR MIN TEMP:  77; 6HR MAX TEMP:  92;

CLEBURNE       CLEAR     81  72  74 E6        30.09S
GRANBURY       CLEAR     80  70  71 CALM      30.09R
6HR MIN TEMP:  80; 6HR MAX TEMP:  97;

$$

TXZ083>090-098>101-113>116-127>130-139>142-154-155-230700-
WESTERN NORTH TEXAS

CITY           SKY/WX    TMP DP  RH WIND       PRES   REMARKS
WICHITA FALLS  CLEAR     77  72  84 CALM      30.08S
6HR MIN TEMP:  77; 6HR MAX TEMP:  93;

WF-KICKAPOO    CLEAR     80  71  74 CALM      30.10S
6HR MIN TEMP:  80; 6HR MAX TEMP:  94;

VERNON         MOCLDY    81  68  65 SE5       30.11S
6HR MIN TEMP:  63; 6HR MAX TEMP:  99;

ABILENE        MOCLDY    83  67  58 SE8       30.13R
6HR MIN TEMP:  82; 6HR MAX TEMP:  96;

ABILENE-DYESS  MOCLDY    82  67  60 SE8       30.12R HAZE
6HR MIN TEMP:  80; 6HR MAX TEMP:  95;

BRECKENRIDGE   CLEAR     83  67  58 SE3       30.10R
6HR MIN TEMP:  83; 6HR MAX TEMP:  99;

MINERAL WELLS  CLEAR     78  70  76 SE6       30.08R
6HR MIN TEMP:  78; 6HR MAX TEMP:  95;

STEPHENVILLE   CLEAR     79  70  72 E3        30.12S
6HR MIN TEMP:  79; 6HR MAX TEMP:  93;

COMANCHE       CLEAR     78  69  75 SE5       30.10S
6HR MIN TEMP:  78; 6HR MAX TEMP:  92;

BROWNWOOD      CLOUDY    81  70  69 E7        30.10R
COLEMAN        PTCLDY    81  68  64 CALM      30.12S
6HR MIN TEMP:  80; 6HR MAX TEMP:  94;

BRADY          CLEAR     81  66  61 CALM      30.12R
$$

TXZ143>147-156>162-174-175-230700-
CENTRAL TEXAS

CITY           SKY/WX    TMP DP  RH WIND       PRES   REMARKS
WACO           CLEAR     80  72  76 E6        30.05S
6HR MIN TEMP:  80; 6HR MAX TEMP:  95;

WACO-MCGREGOR  CLEAR     81  72  74 E6        30.07S
6HR MIN TEMP:  81; 6HR MAX TEMP:  95;

HILLSBORO      CLEAR     78  70  76 E6        30.07S
6HR MIN TEMP:  78; 6HR MAX TEMP:  94;

CORSICANA      CLEAR     78  72  81 SE5       30.07S HAZE
6HR MIN TEMP:  78; 6HR MAX TEMP:  92;

MEXIA          CLEAR     76  73  87 CALM      30.06S
6HR MIN TEMP:  76; 6HR MAX TEMP:  89;

HEARNE         CLEAR     85  79  82 E3        30.04S HX  97
6HR MIN TEMP:  85; 6HR MAX TEMP:  97;

CAMERON        CLEAR     80  75  84 CALM      30.04S
6HR MIN TEMP:  80; 6HR MAX TEMP:  92;

TEMPLE         CLEAR     81  70  69 E7        30.06S
6HR MIN TEMP:  81; 6HR MAX TEMP:  93;

KILLEEN        CLEAR     82  72  69 E6        30.07S
KILLEEN-SKYLRK CLEAR     81  68  65 E5        30.06F
6HR MIN TEMP:  81; 6HR MAX TEMP:  93;

FORT HOOD      CLEAR     83  72  69 E3        30.06F
6HR MIN TEMP:  83; 6HR MAX TEMP:  96;

GATESVILLE     CLEAR     81  72  74 CALM      30.09S
HAMILTON       CLEAR     80  71  74 SE6       30.10F
6HR MIN TEMP:  80; 6HR MAX TEMP:  93;

LAMPASAS       CLEAR     78  71  79 CALM      30.07S
6HR MIN TEMP:  78; 6HR MAX TEMP:  93;

$$

TXZ095>097-106>112-122>126-135>138-148>153-164>167-230700-
EAST TEXAS

CITY           SKY/WX    TMP DP  RH WIND       PRES   REMARKS
PARIS          CLEAR     77  66  69 CALM      30.09R
6HR MIN TEMP:  75; 6HR MAX TEMP:  88;

SULPHUR SPRNGS CLEAR     75  69  84 CALM      30.09S
6HR MIN TEMP:  74; 6HR MAX TEMP:  89;

CLARKSVILLE    CLEAR     76  73  90 CALM      30.08R
6HR MIN TEMP:  74; 6HR MAX TEMP:  89;

MOUNT PLEASANT CLEAR     72  71  97 CALM      30.08S
6HR MIN TEMP:  72; 6HR MAX TEMP:  87;

GILMER         CLEAR     72  72 100 CALM      30.09S
MINEOLA        CLEAR     72  72 100 CALM      30.08S
TYLER          CLEAR     76  69  79 CALM      30.06S
6HR MIN TEMP:  76; 6HR MAX TEMP:  89;

LONGVIEW       CLEAR     74  70  87 CALM      30.06S
6HR MIN TEMP:  73; 6HR MAX TEMP:  88;

MARSHALL       CLEAR     73  71  92 CALM      30.09R
6HR MIN TEMP:  73; 6HR MAX TEMP:  89;

ATHENS         CLEAR     72  70  94 CALM      30.06S
JACKSONVILLE   CLEAR     76  69  78 CALM      30.09S
HENDERSON      CLEAR     72  71  97 CALM      30.08S
6HR MIN TEMP:  71; 6HR MAX TEMP:  87;

NACOGDOCHES    CLEAR     70  66  88 CALM      30.06S
6HR MIN TEMP:  70; 6HR MAX TEMP:  88;

LUFKIN         CLEAR     74  71  91 CALM      30.04S FOG
6HR MIN TEMP:  74; 6HR MAX TEMP:  89;

$$

SUPPLEMENTAL OBSERVATIONS (CENTRAL)

CITY           SKY/WX    TMP DP  RH WIND       PRES   REMARKS
LAKE TEXOMA      N/A     79  73  83 CALM        N/A
CADDO GRASSLND   N/A     73  68  83 S2          N/A
PAT MAYSE LAKE   N/A     79  72  78 CALM        N/A
GREENVILLE       N/A     75  70  83 CALM        N/A
CEDAR HILL       N/A     81  70  69 E3          N/A
ATHENS           N/A     75  70  83 NE1         N/A
PALESTINE        N/A     72  68  88 CALM        N/A


USA.gov is the U.S. government's official web portal to all federal, state and local government web resources and services.